Theta_e
303 303 303 303 303 304 304 304 304 303 302 298 296 300 298 299 297 307 313 318 312 303 293 295 291 291 293 298 297 299 297 296 297 296 297 296 299 297 295 295 294 295 293 294 291 293 291 292 290 292 293 294 296 297 298 297 296 294 289 295 294 306 283 280 284 288 290 293 294 294 295 294 291 293 294 291 287 288 285 284 286 282 284 281 281 278 281
303 303 303 303 303 303 303 304 304 304 303 298 298 297 297 297 298 300 312 317 313 299 285 285 284 291 296 296 295 299 297 296 295 295 296 296 298 295 295 295 296 294 296 294 291 294 283 292 291 291 294 293 299 298 297 298 296 294 293 290 296 284 286 284 279 278 279 283 288 287 292 292 287 286 290 293 291 293 292 292 288 281 283 284 279 274 281
303 303 303 303 303 303 303 304 304 303 303 302 298 295 299 297 302 302 304 311 308 292 294 291 286 290 292 293 294 294 295 297 296 296 295 299 296 296 296 296 296 294 296 294 294 295 293 289 295 294 297 295 299 298 297 299 297 300 303 307 300 287 286 284 278 274 273 272 273 276 281 283 287 292 291 293 292 292 286 281 281 278 283 286 281 281 286
302 302 302 302 303 303 303 303 303 303 303 304 299 300 299 297 286 295 297 302 302 298 299 295 292 287 289 285 290 293 292 296 298 298 296 297 297 295 295 295 296 293 293 293 293 292 295 292 292 292 292 296 297 298 299 299 298 303 308 302 297 288 291 287 283 280 278 279 284 289 289 286 282 287 288 289 292 292 290 284 281 279 282 280 284 285 285
302 302 302 302 302 303 303 303 303 302 303 304 299 300 300 300 293 288 285 294 297 295 298 295 294 286 294 284 293 291 293 294 295 299 294 297 296 296 295 295 292 292 291 291 292 295 292 294 293 294 292 295 295 298 300 300 302 303 300 300 290 287 281 287 288 287 286 287 287 288 289 285 286 286 286 289 290 289 286 282 280 285 281 277 284 287 284
302 302 302 302 302 302 303 303 303 302 302 304 303 297 296 288 293 296 296 290 286 289 289 294 293 295 295 291 296 292 292 293 289 296 297 297 298 293 294 294 293 292 292 292 287 291 291 291 287 295 295 295 295 291 295 295 304 299 295 299 290 285 279 286 287 286 287 287 288 289 288 288 287 287 287 287 288 287 283 283 288 287 280 278 283 287 285
302 302 302 302 302 302 302 303 302 302 301 304 297 290 293 295 294 297 299 291 295 295 296 296 294 293 295 291 293 291 292 291 294 294 295 295 294 295 284 291 292 293 295 292 288 290 283 282 292 291 290 292 291 289 293 295 296 294 292 293 293 287 281 288 289 287 288 289 289 290 288 288 287 287 287 288 287 286 286 287 288 289 285 285 286 286 284
302 302 302 302 302 302 302 303 303 301 301 304 296 292 288 288 288 289 295 296 294 296 294 295 293 290 295 286 291 292 293 293 294 295 292 285 291 295 290 290 292 293 293 291 287 289 291 290 283 292 290 289 292 290 292 289 293 293 292 294 292 288 282 291 290 282 285 288 289 289 288 287 285 287 287 288 287 287 287 286 285 287 285 287 285 282 282
301 301 302 302 302 302 302 303 302 301 301 299 297 292 292 292 295 296 291 289 292 294 294 292 291 288 290 287 291 292 292 291 293 292 296 292 290 293 290 292 292 293 291 290 289 291 291 292 291 292 292 286 293 288 290 294 290 293 291 291 293 289 283 290 287 279 278 287 287 287 288 287 285 284 285 285 285 281 283 283 287 285 283 283 282 282 280
301 301 301 302 301 302 302 302 303 301 301 297 296 292 294 294 297 298 293 286 293 290 293 292 290 284 290 291 291 291 290 292 293 286 294 296 295 293 292 293 291 289 288 287 289 292 292 293 293 294 293 293 292 293 293 293 292 289 290 292 286 288 282 282 281 278 277 286 287 286 284 282 279 278 281 287 287 288 288 288 289 288 287 282 280 280 286
302 301 301 301 301 302 302 302 302 302 299 295 294 294 293 291 290 293 293 286 287 289 289 288 288 290 292 292 291 293 292 292 292 286 285 293 294 296 294 292 289 285 286 289 294 295 295 295 295 295 294 293 292 292 292 294 292 292 290 289 288 289 287 281 284 277 277 285 285 284 278 272 272 285 291 290 287 286 285 284 286 288 289 284 287 287 289
302 302 302 301 302 302 302 302 302 302 300 298 298 296 295 296 295 294 287 283 285 290 289 286 287 289 289 291 292 291 290 291 291 292 289 292 294 295 294 292 290 281 291 294 294 294 296 297 296 295 294 293 293 293 292 291 291 291 290 289 285 285 284 281 283 278 277 279 279 275 269 271 284 290 291 293 291 290 287 287 289 289 289 289 288 288 288
302 302 302 302 302 302 302 302 302 302 302 299 298 296 298 298 295 292 288 286 283 286 284 286 289 290 291 292 291 291 292 294 294 294 294 293 292 293 294 292 289 290 295 293 293 292 289 287 288 289 290 290 291 291 291 290 289 291 289 290 287 281 281 282 281 280 279 277 276 268 269 282 288 290 290 292 291 288 286 284 287 288 288 288 286 287 289
302 302 303 302 302 302 302 302 302 302 302 301 297 299 299 298 293 291 289 284 284 287 287 286 287 288 290 290 290 290 292 292 292 294 292 295 293 293 294 294 292 294 294 293 291 289 284 285 280 282 283 286 286 285 289 290 291 290 290 291 291 288 284 282 279 280 273 274 273 275 282 282 283 282 285 287 283 284 281 278 282 287 288 288 286 287 288
302 302 302 302 302 302 302 302 302 302 302 302 298 299 299 299 296 293 294 290 284 285 286 280 285 288 290 289 289 288 288 289 288 287 293 298 295 295 293 293 294 294 294 291 286 288 283 282 278 278 280 280 275 278 288 285 291 292 292 291 290 289 284 283 279 278 280 276 275 273 273 269 275 286 291 292 293 291 290 282 279 288 289 289 288 287 287
302 302 302 302 302 302 302 302 302 302 302 302 298 297 299 300 299 296 294 290 287 281 283 289 291 289 286 287 289 287 283 282 285 286 288 291 291 293 293 293 295 294 293 291 289 285 282 280 278 278 274 278 284 282 279 287 285 289 291 292 292 292 290 287 283 280 281 279 274 271 269 271 281 284 288 290 291 291 291 281 277 286 288 288 288 287 287
302 302 302 302 302 302 302 302 302 302 302 301 296 297 297 301 298 296 293 292 290 281 290 291 292 291 285 284 287 286 287 281 285 281 282 284 288 290 292 294 294 295 294 287 285 283 281 280 282 280 282 285 280 280 284 283 281 283 288 290 289 286 283 284 281 279 280 278 276 273 277 275 283 287 289 289 290 291 281 273 274 285 287 288 288 287 287
301 301 302 302 302 302 301 301 302 302 302 302 298 296 298 301 301 299 295 292 286 284 289 291 289 285 283 286 286 290 291 289 288 289 285 288 288 288 289 291 287 292 294 284 284 281 279 280 278 279 277 286 286 286 274 282 278 280 280 281 279 281 282 282 278 278 280 280 275 277 278 284 287 287 289 288 290 286 273 271 278 286 287 288 288 287 287
301 301 302 302 302 301 301 301 302 302 302 302 299 298 299 302 301 299 294 291 289 281 288 293 293 291 292 294 291 291 291 290 288 282 282 283 285 290 291 291 291 282 289 282 284 279 278 279 284 281 278 281 285 277 282 278 278 284 283 279 280 280 280 281 280 276 275 277 275 276 278 282 286 288 290 290 286 275 274 283 288 288 287 287 288 287 287
301 301 302 302 302 301 301 301 301 302 302 302 299 294 297 302 302 299 293 289 289 286 288 290 292 289 293 290 286 285 287 288 288 284 282 280 288 290 286 282 287 288 284 284 279 281 278 278 279 283 279 279 281 284 278 280 285 282 282 284 279 281 278 277 277 279 277 275 273 274 271 283 290 289 288 288 279 281 287 288 290 291 288 287 287 288 287
301 301 301 301 302 301 301 301 302 302 302 302 300 295 296 300 301 299 298 294 289 283 285 294 294 291 292 291 292 291 290 286 286 283 286 286 289 286 278 278 282 283 279 280 277 279 279 278 279 279 283 281 282 283 276 277 280 286 286 283 282 285 278 278 279 281 273 273 272 274 280 284 290 288 280 283 285 288 290 290 286 289 289 287 286 286 287
301 301 301 302 301 301 301 301 302 302 302 302 301 297 295 299 301 299 300 298 290 285 289 294 295 294 295 295 295 293 292 292 294 293 287 284 289 287 286 288 287 285 286 285 281 280 282 280 282 278 275 278 283 277 279 274 273 282 287 285 276 284 281 281 276 280 276 276 278 286 287 287 288 288 288 289 291 291 290 289 288 287 286 287 286 286 287
300 301 301 301 301 301 301 301 301 302 302 302 300 295 293 297 298 299 297 292 295 295 297 296 296 295 297 295 296 297 297 297 296 294 293 287 283 286 286 285 285 290 289 288 282 281 281 281 277 281 277 279 278 275 278 278 277 280 278 286 283 286 284 284 280 279 284 284 285 287 285 286 287 288 289 288 288 289 288 287 285 285 286 286 285 286 287
301 301 300 301 301 301 301 301 302 302 302 302 301 295 295 297 297 296 295 294 288 285 288 291 286 282 288 290 293 296 296 294 296 298 298 295 283 282 287 289 291 290 286 288 287 284 281 281 280 282 275 280 281 275 274 273 277 279 278 279 284 283 283 281 276 281 277 272 283 283 283 284 285 286 289 289 289 289 289 287 286 286 287 288 288 287 287
300 301 300 300 301 301 301 302 302 302 302 302 301 300 300 298 297 296 291 284 284 284 282 283 284 292 293 295 294 293 293 295 298 297 296 296 291 285 284 289 293 288 287 289 289 285 283 280 279 279 275 282 282 275 280 276 276 282 275 279 280 279 285 280 280 279 275 276 281 283 284 284 285 285 284 285 287 288 288 287 287 287 288 288 288 288 288
301 301 301 300 301 301 302 302 302 302 302 302 301 296 296 295 298 298 295 293 292 287 283 283 287 297 294 293 292 295 297 295 294 295 297 295 294 294 291 294 294 297 293 293 290 284 282 281 280 280 278 279 285 278 277 280 280 283 280 277 283 283 284 275 280 277 279 282 283 284 284 284 285 287 287 287 287 287 287 287 288 289 289 288 289 289 289
301 301 301 301 301 301 302 302 302 302 302 302 299 297 298 299 300 296 293 291 286 283 283 282 288 292 294 292 293 294 296 294 294 293 294 294 295 294 295 292 290 290 290 287 289 285 283 282 281 279 281 282 285 283 282 280 280 278 277 281 284 281 276 281 278 274 273 275 278 283 276 275 282 285 287 287 288 287 288 288 288 288 288 288 287 288 288
300 301 300 301 301 302 302 302 302 302 302 302 300 299 300 299 299 299 298 296 290 282 282 282 283 288 294 293 295 293 294 294 292 293 292 293 296 294 291 289 290 289 288 284 281 282 282 278 277 282 281 282 279 278 282 282 282 280 280 282 284 280 280 278 275 274 274 280 284 284 283 282 284 285 287 288 289 288 287 287 287 287 287 288 287 287 286
300 300 301 301 301 302 302 303 302 301 302 301 298 297 298 302 300 299 299 300 296 291 286 286 289 288 282 288 294 291 294 295 294 293 293 293 294 293 291 290 289 290 289 284 284 283 281 281 283 281 280 285 280 277 279 274 275 275 279 284 284 285 287 284 283 282 283 285 284 285 284 282 284 287 287 288 289 288 287 287 287 287 287 288 288 288 287
299 300 300 301 301 302 302 302 303 302 302 299 296 294 291 292 297 297 298 299 297 295 285 282 280 282 292 293 292 292 292 293 294 294 293 290 291 291 290 289 287 289 287 282 282 279 281 281 282 286 287 289 279 279 275 276 275 278 283 285 286 285 286 286 286 283 282 286 287 287 286 286 287 287 288 289 289 290 287 287 287 288 289 290 288 288 288
299 299 300 300 301 301 302 302 303 302 300 297 295 286 284 282 290 299 299 299 298 294 286 285 282 286 284 291 290 289 289 290 290 291 292 291 290 290 291 289 288 288 283 284 283 282 282 280 281 285 289 288 284 279 276 274 274 277 283 284 284 284 284 285 286 287 287 287 287 288 287 287 288 287 287 287 288 289 288 289 291 292 290 289 288 288 288
299 299 300 300 300 301 301 302 303 302 297 295 290 288 289 290 294 298 298 300 298 293 286 281 281 282 282 285 292 292 292 294 294 292 290 292 290 291 289 290 285 290 287 281 281 280 279 281 280 281 281 286 285 277 278 275 274 275 283 284 286 286 286 286 285 286 288 288 287 284 283 284 286 284 284 287 287 289 289 289 288 287 289 288 287 287 287
300 300 300 300 300 301 301 302 302 302 296 298 301 301 299 299 300 299 299 298 295 288 291 284 279 280 279 284 291 294 296 291 289 289 287 290 288 288 284 289 288 288 293 285 281 279 283 281 282 279 282 286 280 279 275 273 277 282 284 286 285 285 285 287 287 287 287 287 286 282 280 282 284 286 287 287 287 287 287 287 287 287 287 286 286 286 286
301 301 301 301 301 301 301 302 302 301 301 296 292 295 298 300 299 300 300 297 292 292 289 282 278 279 279 288 284 289 292 285 284 288 281 289 291 287 283 285 285 281 284 280 282 282 282 281 279 280 284 281 282 279 274 276 283 283 285 285 284 284 285 286 286 286 286 286 287 287 286 287 287 287 287 286 286 288 288 287 286 285 285 285 285 285 285
301 301 301 301 301 301 301 301 298 296 293 296 297 298 300 300 299 299 298 295 286 284 283 282 283 279 279 281 281 285 293 287 283 287 282 287 292 285 285 280 282 279 280 288 281 280 279 280 284 279 277 282 278 275 277 280 283 283 282 283 284 284 284 283 284 285 286 287 287 286 287 287 287 286 286 286 287 287 286 285 286 285 284 284 284 284 285
301 301 301 301 301 301 299 300 297 295 294 294 294 302 301 300 301 300 299 300 294 284 282 282 282 280 281 277 277 281 292 285 288 287 286 284 284 290 287 281 276 281 286 281 278 281 279 285 280 275 279 276 274 277 278 282 281 282 283 283 283 285 284 284 284 285 285 287 287 288 288 287 287 286 286 287 286 286 286 285 285 285 284 283 284 284 284
301 301 302 301 300 298 295 292 299 298 294 296 299 303 302 300 300 300 298 296 297 296 286 281 281 282 281 279 281 283 287 279 285 282 282 282 280 282 283 279 277 281 280 279 280 277 281 286 279 275 275 273 274 282 283 283 283 282 283 284 285 286 285 285 287 286 284 285 286 286 286 286 287 287 286 286 286 286 285 284 284 284 283 283 283 284 284
301 301 298 297 296 288 288 290 294 298 301 300 301 297 295 295 287 288 289 287 291 293 286 287 281 281 286 282 279 287 284 281 284 280 281 284 280 279 282 279 279 280 273 276 279 284 282 280 277 274 274 279 283 284 283 283 283 284 284 284 285 286 286 287 286 285 283 283 283 285 286 286 286 286 286 286 285 284 283 284 285 285 284 284 284 284 284
299 298 298 297 293 286 287 293 301 300 297 299 298 289 286 287 285 282 282 284 284 282 285 282 280 285 283 281 282 289 286 281 280 281 278 284 280 277 281 274 279 278 275 275 276 285 274 276 276 276 274 279 280 282 285 285 285 285 285 285 286 286 287 287 287 286 284 284 285 286 286 285 284 285 287 286 286 286 286 285 284 284 282 284 283 284 283
297 292 287 287 286 289 297 302 304 299 296 288 289 285 281 284 281 279 285 280 280 283 284 280 285 285 285 282 280 280 288 284 278 277 278 280 286 277 280 278 279 276 271 272 275 283 275 271 274 273 273 276 278 283 283 284 284 284 285 286 286 287 287 287 287 288 288 288 289 288 287 288 288 287 286 286 285 284 284 284 285 284 284 284 284 283 282
293 292 290 286 292 294 296 298 298 295 288 284 283 283 281 279 282 283 282 279 278 280 285 284 285 284 286 286 284 280 289 289 287 286 282 278 284 282 278 273 280 274 272 271 279 279 278 275 274 272 272 277 280 282 284 283 283 283 285 285 286 287 288 288 289 289 288 287 287 287 288 289 288 287 287 285 284 283 283 284 283 284 284 284 284 284 284
293 291 292 296 296 296 296 294 291 286 285 285 280 277 280 280 282 281 281 276 277 282 285 284 280 281 282 285 284 285 283 290 285 282 280 276 282 278 275 278 279 272 269 276 280 278 276 270 271 271 276 278 281 283 282 282 283 282 283 286 287 287 288 288 288 288 287 287 287 287 288 288 287 286 285 284 284 284 284 284 284 284 283 284 285 285 284
299 299 299 295 293 288 289 284 286 285 278 278 276 275 279 276 278 277 279 283 284 282 282 290 287 289 289 289 285 287 284 288 283 281 280 277 283 281 277 275 274 269 273 280 278 274 271 270 269 272 279 281 282 281 282 282 282 283 284 286 287 288 289 289 288 287 287 286 287 288 288 286 284 285 286 287 287 287 286 285 285 284 284 285 285 284 283
297 296 292 288 285 285 285 275 285 282 279 279 276 272 275 275 278 280 278 280 282 282 284 281 284 284 280 286 283 283 283 285 285 283 281 282 279 276 275 271 271 278 282 276 274 270 271 274 274 277 280 284 285 282 281 282 282 284 285 286 286 288 289 289 288 288 287 287 287 287 287 285 285 285 286 285 285 285 285 285 285 285 285 284 283 283 283
289 287 287 284 281 284 281 272 283 280 274 277 280 277 279 275 279 281 281 284 286 284 287 287 285 285 282 286 286 285 283 280 284 278 276 280 275 277 273 271 278 278 274 270 273 272 274 272 277 281 281 280 281 280 281 280 280 280 281 285 285 287 287 287 287 288 288 288 286 285 284 284 284 283 282 282 283 285 285 284 285 284 284 283 283 283 284
286 284 282 277 272 279 280 277 278 277 281 282 280 281 280 282 282 283 288 289 286 286 285 284 285 285 281 284 281 280 283 283 279 279 281 281 276 273 278 281 279 272 272 272 269 268 269 274 276 278 279 280 279 279 279 280 282 284 285 283 285 287 287 287 287 288 288 287 286 285 284 284 283 282 281 283 283 283 285 285 285 284 284 282 282 283 284
285 286 285 282 277 281 283 277 278 281 283 283 284 285 285 286 289 288 290 288 286 286 286 286 285 285 280 281 281 282 283 283 279 281 281 275 274 278 282 276 270 271 268 266 267 268 272 274 279 280 279 278 278 279 280 281 283 283 283 285 286 287 287 287 288 288 288 288 287 287 285 284 283 283 283 282 282 283 284 285 285 285 284 282 283 283 283
282 285 284 276 274 280 278 280 284 285 286 286 286 288 288 288 287 285 289 289 288 287 286 286 282 283 282 285 283 279 280 282 279 280 281 278 280 277 275 273 271 273 272 269 270 273 276 278 281 282 281 280 279 279 278 281 283 284 284 285 285 287 287 287 287 287 288 287 287 286 285 285 285 284 283 282 282 284 284 285 285 285 285 284 283 283 283
287 283 280 279 281 282 281 283 283 281 284 286 287 287 286 286 285 287 290 290 288 287 288 285 283 282 279 283 281 280 278 282 275 276 281 279 272 269 269 267 268 267 272 274 274 275 279 281 283 282 280 281 278 279 280 282 283 283 284 285 285 287 287 287 288 287 287 287 288 288 287 286 286 285 284 284 282 283 285 285 285 285 285 284 283 283 282
284 283 284 282 281 282 283 284 282 281 283 284 284 284 285 284 285 288 290 289 289 287 286 285 285 281 281 280 276 278 278 280 279 280 277 275 275 275 274 270 271 269 271 276 278 281 283 283 283 283 281 282 281 280 281 283 283 283 284 286 287 288 287 287 287 288 287 287 288 288 287 286 285 285 284 283 283 284 284 284 285 284 284 284 284 283 283
287 284 283 284 282 281 282 278 278 279 281 282 283 284 285 285 285 286 291 290 290 286 284 281 282 281 280 279 277 273 275 281 277 275 274 274 278 276 274 272 273 275 278 281 281 281 282 283 284 283 283 281 282 281 283 284 283 284 285 286 287 288 288 288 287 288 287 287 286 287 287 286 286 287 287 285 284 284 283 283 284 285 284 284 284 283 282
283 280 281 284 286 285 284 285 285 284 284 285 285 286 286 284 287 289 291 289 286 282 281 283 282 280 278 276 277 280 281 278 275 275 273 276 278 274 273 275 278 281 283 283 283 285 285 284 284 284 283 283 284 282 284 285 285 285 285 286 287 288 288 288 287 287 287 288 287 287 287 288 288 287 288 286 285 284 282 282 284 284 285 284 284 285 284
Wind_Speed
29 29 29 29 29 30 29 30 28 25 24 13 9 5 3 2 5 10 6 1 5 3 2 2 2 4 5 8 12 13 12 9 7 8 2 4 3 4 5 2 3 3 2 1 3 2 3 3 3 4 8 6 8 3 7 9 8 6 3 6 4 5 2 2 3 3 5 7 8 10 10 10 5 2 1 1 0 3 5 5 6 3 2 2 2 2 2
29 30 29 29 29 30 30 30 30 25 18 7 7 3 2 4 4 6 4 2 2 3 3 3 4 5 6 8 10 9 9 7 9 7 3 3 2 5 4 7 5 3 2 2 4 3 2 3 4 2 3 3 9 5 6 9 5 5 2 2 1 1 1 3 1 2 5 7 5 6 7 6 3 1 3 3 3 4 1 2 1 0 1 2 2 1 0
29 30 30 29 29 30 30 31 31 30 19 5 3 1 3 5 3 6 5 2 1 4 3 5 4 5 6 4 3 4 4 8 10 8 5 1 2 4 3 5 6 5 4 4 4 6 1 1 3 4 1 2 4 11 8 12 6 3 4 8 1 3 1 2 1 1 0 1 2 3 5 6 4 3 5 3 2 2 6 3 5 2 3 6 1 1 2
28 30 30 29 29 30 30 31 31 31 27 14 1 3 3 2 3 4 5 5 2 3 3 4 3 4 4 5 6 5 6 7 7 8 4 3 6 5 8 5 5 6 7 4 4 7 6 2 1 1 2 2 2 5 10 11 7 5 8 6 4 0 1 1 2 2 5 5 3 1 6 4 4 6 6 5 3 2 3 4 2 1 1 3 2 6 3
29 29 30 29 29 30 30 31 32 33 31 27 2 3 2 3 2 4 6 7 2 4 3 5 4 4 1 1 2 2 4 4 3 4 2 8 9 8 5 5 5 3 6 3 3 3 6 7 8 8 9 10 4 7 13 10 9 8 5 6 3 1 1 1 2 2 3 3 7 9 7 5 4 5 5 5 4 4 5 3 4 2 4 3 0 5 3
29 29 30 28 28 29 30 30 31 33 32 29 5 3 6 3 2 2 2 3 4 8 5 8 7 8 5 2 3 6 7 6 3 5 2 4 8 3 8 9 5 9 10 6 2 1 5 4 3 6 5 5 9 4 5 4 5 7 1 4 2 2 1 2 1 4 5 5 7 7 7 7 6 5 3 5 5 7 4 1 3 1 3 6 2 3 1
28 29 29 28 29 29 29 30 30 33 33 24 6 6 4 2 3 2 7 4 7 6 8 8 6 5 10 1 6 5 5 7 5 4 4 6 3 9 3 9 14 14 13 11 5 10 3 3 3 3 5 3 3 3 2 4 2 3 2 1 1 3 1 1 1 2 4 5 6 6 8 5 5 5 5 4 7 5 5 5 2 1 1 3 3 1 1
28 28 29 28 28 28 29 29 30 31 32 16 9 10 6 6 5 6 8 3 6 7 7 4 5 3 11 6 6 8 3 2 2 4 6 0 2 8 7 11 12 11 13 12 7 7 5 3 1 4 5 7 4 3 1 1 3 2 1 1 4 4 1 5 3 3 3 6 7 7 8 8 6 6 6 5 4 5 3 3 5 5 1 4 7 4 2
28 29 28 27 27 28 28 28 29 29 26 9 9 6 6 3 3 3 5 9 6 8 7 7 7 6 8 6 7 7 13 7 11 8 15 11 8 4 7 11 7 11 13 11 9 8 8 7 5 5 4 3 3 3 2 4 2 3 3 2 1 2 1 2 1 2 2 2 3 5 6 6 5 4 4 4 4 4 4 4 3 5 5 4 8 8 5
28 28 29 27 27 27 27 27 28 27 20 6 5 8 8 5 3 3 3 2 5 5 3 6 6 7 4 6 6 4 12 14 9 3 8 12 13 11 11 8 7 8 10 10 7 9 10 8 9 6 4 4 5 4 6 5 3 1 0 1 3 2 2 1 1 1 2 2 4 6 8 10 9 6 1 2 1 2 1 1 6 4 3 7 5 1 6
25 27 28 28 26 26 27 26 26 26 15 11 7 5 8 7 7 7 4 3 6 5 7 10 8 6 7 9 11 12 8 12 11 6 4 9 10 11 9 9 5 2 5 6 8 7 10 10 9 5 4 5 5 5 5 7 4 3 0 1 0 0 1 1 2 2 2 1 2 4 5 3 3 3 5 3 2 5 6 3 4 6 8 1 2 2 6
24 24 26 26 25 25 26 26 25 25 18 9 4 3 4 6 5 3 3 5 6 9 9 8 9 8 13 13 8 10 9 6 5 5 4 5 9 8 5 6 5 3 4 4 6 9 11 8 8 6 9 10 10 9 9 6 6 4 3 2 3 4 3 3 2 2 1 2 5 5 3 6 2 8 9 6 3 7 8 5 10 9 7 7 10 10 10
24 24 25 25 26 25 25 25 25 24 23 12 7 5 5 6 3 4 3 2 5 9 6 9 12 13 13 14 8 6 9 9 7 6 3 4 5 5 5 4 4 2 4 6 9 9 7 5 6 8 8 7 6 7 8 10 9 9 5 3 2 3 4 2 1 2 1 3 1 1 3 1 4 6 12 8 6 4 7 8 13 13 10 7 7 6 8
24 25 25 24 25 26 25 25 25 25 25 18 8 7 5 8 6 5 4 3 5 5 6 6 12 11 12 11 13 6 6 6 5 5 3 3 2 3 4 3 4 1 3 3 4 4 3 1 2 3 4 2 2 3 5 6 6 6 10 11 8 5 3 4 2 2 3 2 3 7 2 5 10 6 6 5 3 4 2 4 5 9 8 7 4 7 9
24 25 24 25 27 26 25 24 24 25 25 22 7 7 5 6 4 2 3 1 2 3 8 6 7 8 9 9 11 7 7 7 9 6 3 2 1 3 5 7 3 3 3 2 2 1 1 0 1 1 2 0 0 2 1 3 3 10 8 7 8 6 6 2 4 1 4 2 1 2 1 2 1 2 3 5 4 3 3 3 1 8 10 8 7 8 8
23 24 25 25 26 26 25 24 23 23 22 23 9 7 5 4 3 2 2 1 1 3 6 6 5 5 6 6 9 6 4 3 6 6 6 6 7 6 5 4 2 2 3 2 1 1 1 2 2 1 1 1 3 2 1 1 2 3 4 3 1 3 5 9 9 3 4 2 2 2 1 2 0 6 6 7 6 7 5 3 3 6 7 8 7 8 8
22 24 24 26 25 26 25 24 23 23 21 20 9 7 4 7 5 5 4 3 2 4 6 11 7 5 5 6 9 7 7 4 6 4 5 5 7 11 10 8 2 0 1 3 2 1 1 1 1 2 2 3 3 0 3 4 4 5 7 5 9 7 5 5 4 1 2 2 3 3 0 1 5 7 7 9 6 6 4 0 0 6 8 6 7 6 6
23 23 24 25 25 25 25 24 23 22 21 22 11 5 6 5 6 7 4 4 4 4 6 8 7 6 5 5 4 6 4 4 5 2 2 6 7 9 10 6 6 6 7 4 1 1 2 1 1 1 2 4 7 4 2 4 3 3 4 4 3 4 3 5 0 1 2 5 3 2 1 2 3 5 8 7 8 3 1 2 2 6 6 5 6 6 6
22 22 24 23 24 25 24 24 23 21 20 20 12 8 3 6 6 6 3 4 4 3 5 7 6 5 5 7 4 5 6 6 5 3 4 5 3 10 13 3 5 4 8 4 5 3 3 3 4 3 2 4 5 1 2 2 2 1 2 3 5 4 2 2 4 3 1 1 3 1 2 3 4 7 4 5 3 2 2 1 4 3 3 5 4 5 5
22 23 23 23 24 25 24 23 23 22 20 20 11 3 8 8 4 7 6 5 3 3 4 5 5 8 5 7 7 7 6 7 6 4 4 3 7 11 7 6 8 5 8 6 5 3 2 3 3 1 3 3 1 1 2 1 4 5 1 3 3 2 2 2 2 2 2 1 1 1 1 1 5 6 4 4 5 1 2 3 3 3 4 5 6 5 8
22 22 23 23 22 24 24 22 22 21 20 20 14 5 6 5 9 6 4 3 2 2 2 4 4 8 6 6 4 6 5 6 4 5 5 4 7 3 2 2 6 4 3 3 4 4 2 4 5 2 2 2 4 2 5 3 3 4 6 3 4 7 2 2 2 0 2 3 3 2 2 2 5 3 3 0 4 4 2 0 3 3 5 6 5 5 5
21 21 21 22 23 24 23 22 22 21 20 20 17 5 4 7 7 8 9 3 3 2 0 4 4 3 2 3 3 5 4 6 6 2 2 5 5 6 3 7 6 3 2 2 2 2 4 2 3 3 4 3 3 3 4 5 3 2 2 3 3 7 1 1 1 2 3 1 2 3 2 5 1 0 2 1 3 2 3 6 5 4 5 4 5 5 6
21 22 22 22 23 23 23 21 21 20 19 17 11 3 3 8 9 10 8 5 1 3 1 0 3 1 3 3 1 5 3 4 5 4 2 1 4 5 7 5 4 3 1 3 2 1 3 3 2 2 2 2 3 3 4 1 1 5 2 3 5 2 4 6 3 2 2 2 5 9 8 4 5 4 3 5 6 8 8 7 6 5 4 4 4 5 6
20 21 22 22 23 22 22 21 21 20 18 17 10 3 4 5 6 9 9 4 4 5 4 4 4 2 2 4 6 7 3 1 4 2 2 1 3 4 2 2 0 2 2 4 1 2 3 1 3 1 0 2 4 2 4 3 5 4 3 2 2 3 4 3 3 3 4 1 8 11 7 3 3 4 6 7 9 8 8 6 4 4 6 7 6 5 6
20 20 21 22 23 22 21 20 19 19 17 16 13 5 5 2 4 5 6 5 5 3 1 2 2 1 3 2 3 2 2 2 7 4 3 1 3 2 1 1 1 1 2 4 3 4 2 2 3 2 2 2 4 2 2 3 3 4 4 3 2 2 2 6 4 3 3 1 5 6 4 4 4 7 7 7 7 9 6 4 4 4 4 4 5 6 6
20 20 20 22 22 22 21 19 19 17 16 17 11 3 5 4 3 4 1 1 2 0 0 1 1 0 4 1 3 1 3 1 4 6 1 4 4 2 2 0 1 3 2 2 2 3 2 1 1 1 3 2 3 1 2 1 4 2 0 3 1 1 4 1 1 1 3 4 8 10 7 5 10 10 8 7 7 6 6 6 7 7 6 6 5 4 5
19 19 20 20 20 20 20 19 17 17 16 14 7 5 4 5 4 6 5 4 4 0 3 3 2 4 8 4 2 4 2 4 4 4 4 5 8 2 0 1 1 1 1 2 2 0 0 1 1 1 1 1 1 2 1 2 3 2 1 2 3 5 3 1 3 3 3 3 4 7 5 6 9 6 7 8 8 6 7 7 6 6 6 5 5 5 5
18 19 20 20 20 20 19 18 16 16 15 14 7 6 5 3 4 5 4 4 4 1 2 3 5 3 5 4 1 3 4 1 3 2 5 6 2 4 2 3 4 1 1 1 2 2 1 2 2 1 0 2 2 3 2 2 1 2 0 3 3 4 1 2 2 2 1 3 5 4 1 3 4 5 6 6 4 5 5 5 5 5 4 5 5 5 5
18 19 20 20 19 20 19 18 17 14 16 11 6 6 5 1 4 5 5 4 3 2 3 4 5 3 0 2 3 6 2 2 6 3 2 2 2 2 2 3 3 1 1 1 1 1 2 3 2 0 1 2 2 2 2 3 1 0 1 1 3 3 4 7 4 2 1 3 3 3 3 3 4 4 4 5 4 4 4 4 4 5 5 6 6 6 6
18 19 19 19 19 19 19 18 17 15 14 6 2 2 0 1 4 3 4 3 2 1 1 3 3 1 1 1 2 4 5 7 7 4 3 4 1 1 5 1 2 2 1 1 0 1 1 1 1 1 1 1 1 0 0 1 1 1 3 3 6 6 7 5 4 4 2 2 1 1 3 4 4 3 4 3 4 5 5 4 4 6 6 6 6 6 5
18 19 20 19 19 19 18 17 16 16 12 6 2 1 1 1 1 3 5 4 3 2 1 1 4 3 4 0 2 1 3 3 3 2 1 1 3 5 3 3 1 2 0 1 1 1 1 1 2 0 1 1 1 0 1 1 3 1 2 4 5 5 5 3 3 3 1 3 3 3 3 3 4 5 4 5 7 6 5 5 6 6 7 7 7 8 7
18 19 19 19 18 18 18 17 15 11 6 4 3 1 0 1 2 6 7 4 3 1 1 2 3 0 1 0 1 1 2 1 2 1 1 3 2 1 2 1 2 0 1 1 1 1 1 1 0 2 1 2 2 0 0 0 3 2 2 3 5 5 4 3 3 3 4 4 4 3 2 3 3 3 5 5 4 4 5 5 4 5 7 5 6 6 8
19 19 19 18 18 18 18 17 15 9 3 5 7 7 7 6 8 8 5 4 1 1 1 1 2 1 1 1 1 2 1 1 2 0 1 1 1 0 1 2 3 1 2 2 0 1 1 0 0 2 2 5 2 1 1 3 4 1 5 7 6 4 3 3 4 4 4 4 3 1 3 3 3 4 3 4 4 5 5 6 7 7 6 7 7 9 9
21 20 19 17 16 17 17 18 16 11 6 0 2 2 3 5 5 6 3 1 1 2 1 1 1 1 2 1 2 2 3 2 2 2 1 2 1 1 1 2 0 1 0 2 1 0 1 1 3 3 3 1 1 1 1 2 1 5 5 4 4 3 3 3 4 4 4 4 3 3 2 3 2 3 4 4 4 6 6 6 7 7 6 7 8 8 8
21 21 19 17 15 16 18 15 5 1 2 4 2 2 3 4 4 4 1 1 2 0 1 1 1 3 2 1 2 2 2 1 1 0 1 2 3 1 1 1 0 1 1 1 0 2 2 1 1 1 3 0 1 1 1 1 4 4 4 4 3 3 3 3 2 2 3 3 3 4 3 4 5 4 3 4 5 6 7 5 4 6 7 7 7 7 7
21 21 20 18 19 13 5 4 2 1 1 1 2 3 5 4 5 3 3 2 0 0 0 1 1 2 1 2 2 1 2 3 0 1 2 1 3 1 1 0 2 1 1 3 2 1 0 0 1 2 1 2 2 0 1 4 5 4 4 1 2 3 1 1 1 3 3 3 5 4 5 4 3 4 3 4 5 6 5 4 6 6 6 6 7 7 7
22 21 21 17 6 1 1 2 2 2 2 4 5 7 5 2 2 1 1 1 2 2 1 1 2 2 2 2 0 0 3 2 1 2 2 2 1 0 0 1 1 1 0 1 1 3 4 3 1 1 0 2 2 2 4 4 4 2 3 2 3 3 2 2 1 1 3 4 5 3 3 3 4 4 4 2 5 5 4 6 6 7 7 8 7 7 7
23 22 6 2 1 1 1 0 0 3 4 7 5 3 0 1 0 1 1 1 2 3 2 2 3 3 1 1 2 1 1 2 4 2 2 1 2 2 1 1 1 1 1 1 1 1 0 1 2 3 4 3 7 5 5 5 4 4 3 3 2 2 2 1 1 3 2 3 3 3 3 3 3 3 2 3 5 4 4 4 4 3 3 4 4 4 5
14 4 2 2 2 1 1 2 2 1 2 4 1 0 1 1 0 1 2 2 1 1 3 3 3 3 2 1 1 1 2 0 3 2 3 1 1 3 1 2 1 1 1 1 2 3 1 1 1 1 2 3 4 4 4 6 5 4 4 3 2 1 1 1 2 3 1 2 0 2 2 2 3 2 1 4 3 4 4 4 3 3 3 3 3 3 3
3 4 3 3 2 2 5 3 2 2 1 1 1 1 1 1 1 2 1 1 1 2 2 3 2 3 2 1 1 1 2 0 0 2 1 4 1 0 0 1 1 1 1 1 1 1 1 1 1 1 0 2 3 4 5 5 5 4 4 3 2 2 3 3 2 1 1 2 4 2 2 1 1 2 5 4 3 3 2 2 1 1 2 2 2 2 2
5 4 4 3 4 4 5 7 5 2 1 1 0 1 0 1 1 1 1 1 1 1 2 1 2 0 1 0 1 2 1 0 0 1 0 2 1 0 1 0 0 1 0 1 0 0 0 1 0 1 2 3 3 4 6 5 5 4 4 3 2 3 2 2 2 3 3 3 2 3 0 1 4 3 3 4 3 2 0 0 1 2 2 3 4 4 4
4 3 4 6 7 7 5 2 1 1 1 0 0 1 1 1 0 1 1 1 2 0 1 0 0 1 1 2 1 1 0 1 0 0 0 2 0 1 1 1 0 0 1 1 1 2 0 2 0 3 3 4 5 6 5 5 4 4 3 2 2 3 2 1 2 4 3 2 2 2 3 4 3 3 2 2 3 3 3 2 3 3 3 4 4 5 4
15 11 5 4 3 2 1 1 2 1 0 0 1 1 1 1 1 2 2 1 0 0 1 1 1 1 2 2 2 1 1 1 0 0 0 1 1 0 1 1 0 2 2 1 1 1 1 2 2 3 5 6 5 5 4 4 4 4 2 2 3 4 2 2 4 3 2 2 1 3 3 4 3 2 3 1 3 3 3 3 4 3 4 5 6 5 4
6 3 2 1 1 3 0 1 0 2 1 1 1 2 2 2 3 1 1 1 1 1 1 3 2 3 2 1 1 0 1 2 2 0 1 1 1 1 1 1 2 1 0 1 1 3 3 1 5 6 3 6 5 5 4 4 3 2 2 3 3 4 1 3 4 4 2 2 2 4 4 3 1 0 1 3 4 4 4 4 5 6 5 2 3 4 3
3 1 1 1 1 1 1 2 1 1 2 1 2 3 2 3 3 2 5 2 2 1 2 2 2 3 0 1 1 1 1 0 1 1 1 1 1 0 0 2 1 0 1 2 1 2 1 3 2 5 7 5 5 4 3 3 4 5 3 1 4 4 2 1 4 4 4 3 3 3 2 2 2 2 3 4 5 4 0 1 1 1 1 2 3 4 5
1 2 2 1 3 2 1 1 0 1 1 2 3 4 4 6 5 3 1 2 1 3 5 5 6 5 3 1 1 1 0 1 0 2 1 1 1 2 2 1 0 2 1 1 1 3 3 5 1 4 3 5 4 3 5 4 3 4 4 4 5 5 3 1 3 4 4 4 4 3 4 4 3 3 3 4 4 3 0 1 1 1 2 3 4 4 4
1 1 1 1 2 2 2 1 2 2 2 4 4 4 5 6 1 0 1 3 4 4 5 3 3 2 1 2 2 2 1 1 1 0 2 1 1 1 0 0 1 1 1 2 2 2 3 3 4 5 5 5 5 4 1 1 1 2 2 4 5 5 4 2 4 4 5 5 5 4 3 3 4 4 3 2 3 2 1 1 1 2 2 3 3 3 4
1 1 1 1 2 1 2 3 2 5 5 7 7 6 5 5 5 2 2 2 5 4 2 2 2 1 1 1 2 3 2 1 1 2 2 1 0 1 1 1 1 1 1 2 4 2 5 3 6 6 7 6 6 5 4 3 1 0 2 4 5 6 4 4 3 4 5 5 4 4 3 3 4 4 4 4 2 1 3 1 1 2 2 2 2 2 3
1 1 1 1 1 1 2 3 6 8 8 8 7 6 5 4 6 6 1 2 4 4 4 3 1 2 1 0 2 1 2 1 1 1 0 1 1 2 1 2 1 2 2 3 5 4 6 4 6 5 5 5 4 5 5 3 1 0 0 4 3 6 5 4 4 4 4 4 4 5 5 5 5 4 5 4 3 1 1 1 1 1 1 1 2 1 2
1 2 2 2 2 4 4 5 5 7 5 5 5 6 3 3 3 3 5 3 2 3 3 3 3 2 1 1 1 1 2 1 1 0 2 3 2 1 2 5 3 3 3 2 4 4 3 2 4 4 5 5 6 6 4 2 2 1 2 4 5 6 5 4 4 4 4 4 4 5 4 4 4 4 3 4 4 3 2 1 1 2 2 1 1 2 2
1 2 3 3 5 4 2 3 3 5 7 6 6 6 5 1 1 1 1 1 1 2 2 1 1 2 1 1 1 1 2 0 1 3 3 3 1 3 4 5 3 4 6 6 5 4 5 2 6 7 6 6 6 7 6 4 3 2 2 4 5 6 5 4 4 5 5 5 5 5 4 3 4 4 2 3 4 4 4 3 2 2 3 3 1 2 3
2 3 4 3 6 7 7 7 7 7 7 7 7 6 4 4 3 2 1 1 3 1 2 1 1 1 1 3 2 1 1 0 2 1 3 3 2 3 3 4 5 5 5 5 4 5 6 5 4 9 8 8 8 8 7 5 2 2 2 2 5 6 6 6 4 4 4 5 4 4 2 2 4 3 3 3 4 4 4 4 4 3 3 4 2 2 4
Wind_Direction
358 356 355 353 350 348 346 345 344 349 350 3 346 320 314 273 263 308 306 129 123 111 237 253 227 216 231 251 251 257 266 275 280 273 322 301 225 236 203 257 293 264 274 249 288 316 281 306 271 340 69 110 107 29 24 29 36 60 19 63 337 24 74 30 295 294 298 314 315 315 318 321 341 33 69 59 237 169 171 183 202 202 238 116 154 171 251
359 357 356 354 351 349 347 345 343 346 3 338 305 308 296 301 286 301 279 194 176 145 200 256 263 260 252 237 257 257 270 266 265 257 274 250 279 290 316 286 275 322 334 360 332 13 33 354 5 343 84 106 107 84 61 55 39 43 315 100 264 55 304 129 264 348 340 333 325 341 348 30 3 2 33 75 40 35 74 38 4 61 227 154 114 277 304
360 358 357 355 353 351 348 346 343 341 349 350 309 292 299 286 248 225 263 259 130 197 184 206 249 268 268 276 294 316 292 270 255 266 254 318 323 359 331 354 9 332 338 322 353 327 193 353 335 338 16 156 126 112 123 103 96 64 67 61 82 102 200 81 112 170 143 293 65 4 337 346 327 332 11 32 18 19 41 40 359 75 322 49 77 124 264
0 359 358 357 355 352 350 348 345 342 337 349 294 250 301 323 345 307 349 3 319 278 296 274 259 283 295 320 284 279 288 308 318 336 325 342 15 347 319 314 27 340 351 7 348 333 334 345 334 33 312 97 219 152 109 93 101 101 62 53 64 110 28 113 156 167 203 212 254 268 356 341 346 319 334 324 331 32 104 119 113 204 226 345 217 154 214
2 1 360 358 356 354 353 350 348 345 340 341 41 282 193 290 21 6 342 321 348 11 330 4 344 292 283 228 335 308 313 308 303 326 302 45 30 359 304 19 12 345 3 355 350 338 335 350 21 12 21 343 28 87 96 93 96 78 77 104 78 79 15 307 357 275 242 290 308 319 326 297 291 323 304 330 345 38 30 359 264 171 76 324 276 101 106
3 2 2 360 358 357 355 354 351 348 342 337 333 38 11 7 359 41 35 257 308 352 356 358 331 324 347 329 9 360 348 2 347 12 336 62 41 44 348 355 8 355 356 339 297 263 264 11 15 348 25 15 342 12 52 86 105 99 116 100 124 141 152 262 213 285 290 288 289 293 290 291 300 292 299 299 327 348 330 219 233 87 150 198 257 329 359
4 4 3 1 0 358 358 357 355 352 343 339 51 32 1 15 314 322 4 3 319 285 287 320 311 334 350 322 10 342 30 354 3 346 333 357 46 42 35 359 17 4 28 55 36 9 34 347 6 39 337 27 330 9 45 80 125 88 36 41 94 89 239 224 286 302 354 342 347 344 328 320 319 316 328 347 55 18 2 334 330 106 240 227 203 124 93
6 5 4 3 1 360 359 359 360 356 345 335 55 48 5 12 352 330 338 306 297 318 324 299 296 34 19 33 358 329 35 314 10 359 12 33 324 54 50 18 13 6 44 43 47 11 22 46 40 344 28 337 26 4 58 260 335 58 124 128 349 100 292 61 33 40 345 349 329 325 315 316 307 325 334 4 9 355 358 3 335 16 18 63 70 60 354
7 6 6 4 3 1 1 2 2 1 350 23 12 45 23 310 314 323 306 323 320 327 329 0 35 46 10 22 353 2 352 17 16 42 36 36 11 43 61 34 14 38 44 42 19 1 350 343 351 337 9 355 314 13 296 11 8 354 25 36 21 77 234 56 58 57 315 292 323 321 6 358 356 341 330 342 16 3 332 25 318 55 337 360 42 24 314
8 8 6 5 4 2 1 3 4 5 357 28 342 22 351 337 303 322 295 287 295 302 337 32 47 24 344 358 354 17 17 25 25 21 2 25 32 35 53 37 45 41 29 22 343 338 331 329 316 306 309 301 314 302 316 334 356 351 60 83 106 138 118 91 71 65 239 291 336 354 10 11 360 331 282 73 22 100 77 34 55 73 111 63 52 311 277
8 8 7 6 4 2 2 3 4 7 9 18 352 351 10 4 332 326 335 345 313 5 39 33 29 25 343 19 6 358 26 25 38 44 359 5 17 19 57 46 52 38 40 335 323 328 317 302 298 306 305 294 284 289 294 303 303 291 263 58 254 127 116 197 144 168 193 184 360 20 21 322 240 255 349 296 152 97 70 24 23 45 75 155 158 41 8
6 6 7 6 4 3 2 2 3 6 10 356 322 306 20 329 316 308 334 22 343 12 39 41 15 10 2 359 14 3 7 26 36 46 30 17 5 0 21 60 60 38 345 301 342 329 310 295 283 268 242 241 249 259 267 273 278 270 249 191 171 190 166 213 164 128 213 42 40 27 279 232 237 33 12 10 47 86 110 81 36 23 22 49 47 34 34
4 5 5 4 4 2 2 2 2 3 6 356 354 328 2 353 342 348 329 7 17 19 19 22 11 5 357 350 354 21 349 12 32 30 51 36 3 358 351 60 54 360 322 357 338 322 329 318 312 288 300 303 296 271 246 235 235 245 272 242 158 171 173 190 129 144 41 69 112 148 228 247 52 57 27 351 36 21 65 42 28 28 33 60 58 43 42
4 4 3 3 2 1 1 1 1 1 1 3 349 331 347 7 17 353 15 17 356 31 14 26 9 358 346 4 347 357 20 28 349 350 30 44 338 344 322 44 77 317 23 343 304 300 328 346 334 4 314 313 271 279 244 259 253 233 214 223 228 212 196 121 218 100 149 168 161 214 322 349 7 4 15 19 31 356 88 101 21 360 18 33 49 39 35
4 3 2 1 2 360 360 1 1 0 359 359 342 334 342 12 18 348 302 313 332 339 34 32 345 344 346 14 1 11 8 5 358 334 352 142 323 25 359 65 60 12 334 348 331 330 221 319 345 357 293 72 64 256 273 246 207 218 233 228 202 186 192 196 104 288 123 150 283 338 11 255 292 249 358 2 5 20 346 100 50 355 354 5 29 28 19
2 1 1 0 360 359 357 359 360 360 2 356 353 344 316 5 344 316 297 240 295 25 357 5 347 0 5 2 350 6 350 14 360 342 0 9 13 336 49 360 114 75 338 288 257 260 319 74 273 28 240 275 277 347 283 316 298 57 16 45 24 46 115 138 144 173 109 136 157 206 190 228 297 334 350 337 342 358 324 74 39 324 337 356 30 28 19
2 360 360 359 359 358 355 356 358 359 0 4 346 333 304 1 6 347 327 314 53 89 350 12 0 20 15 353 350 3 352 20 12 29 348 345 3 360 358 331 302 70 331 354 308 17 3 191 227 222 285 290 291 248 344 7 351 347 4 12 50 51 23 39 57 136 159 152 161 233 76 120 348 320 337 335 324 7 64 202 102 328 324 347 16 20 17
1 360 358 358 358 358 355 353 356 358 360 359 355 323 300 341 4 354 342 4 13 49 7 13 11 26 7 348 12 344 356 6 15 14 23 331 9 356 336 349 359 1 354 326 320 354 325 347 351 2 288 339 336 13 39 343 356 352 358 355 15 25 360 51 74 185 207 184 231 121 67 360 330 316 313 349 327 20 90 187 303 298 306 349 9 16 10
359 358 357 357 357 358 356 352 351 357 360 1 350 338 304 322 335 30 358 7 15 43 352 22 10 52 10 16 14 5 17 20 24 24 349 344 346 323 303 65 17 350 8 359 346 18 7 351 9 13 8 352 42 154 305 22 330 326 2 8 22 11 54 318 49 31 52 70 87 132 126 243 266 288 331 342 12 50 82 228 224 266 318 355 344 1 354
356 356 356 355 356 357 357 353 350 353 358 360 1 293 283 292 356 44 28 354 339 324 16 14 22 35 28 33 10 11 5 30 12 27 23 330 300 326 6 10 355 15 5 11 26 340 38 7 4 349 17 345 326 208 22 275 356 356 2 31 85 17 75 288 21 320 48 66 85 22 5 232 177 287 349 25 90 219 197 232 296 314 341 349 348 24 22
354 355 355 354 354 356 356 353 350 351 354 357 358 331 328 351 357 4 7 318 311 330 346 339 44 56 30 53 30 14 51 54 32 11 329 308 299 324 58 23 356 358 23 359 3 5 356 343 336 359 347 19 326 55 341 345 347 357 57 36 64 355 76 342 48 124 87 20 46 105 200 348 11 38 97 287 171 196 199 131 292 349 12 25 9 15 15
352 354 353 353 354 355 355 352 348 350 353 355 356 342 339 330 340 347 328 283 177 206 201 265 306 89 120 161 145 100 68 17 70 78 16 336 328 44 44 29 29 17 14 351 21 357 7 323 331 18 4 325 354 20 331 36 335 309 30 50 63 353 105 183 113 314 98 90 176 226 32 103 148 130 261 49 6 23 29 32 21 41 9 14 25 353 355
350 352 353 352 352 353 353 351 347 349 351 355 358 8 310 318 332 340 336 338 234 289 275 305 264 108 246 105 115 101 77 126 116 74 53 77 342 21 54 28 4 332 23 38 60 337 273 351 290 330 340 12 33 324 333 1 359 24 18 37 126 3 29 0 67 343 61 82 80 59 44 32 6 11 40 37 17 27 38 35 15 4 11 26 9 350 352
347 349 351 351 351 351 352 350 348 349 350 349 354 319 317 301 309 348 348 347 51 349 341 1 46 338 343 3 34 111 202 145 101 147 177 114 60 348 18 64 318 353 9 339 307 274 292 292 251 18 39 314 43 38 41 348 57 338 3 14 55 24 18 56 55 321 58 294 40 38 12 350 356 360 11 31 41 27 21 9 12 358 1 353 347 360 350
344 346 349 349 350 349 350 349 348 351 350 348 348 311 269 280 357 16 10 8 344 28 341 312 333 301 33 319 78 58 20 16 132 196 126 41 96 85 83 241 279 101 308 307 332 24 7 337 342 5 34 334 58 329 355 37 321 20 19 302 40 336 44 66 28 24 79 268 61 16 1 346 15 42 26 17 9 1 357 351 347 347 0 11 356 1 354
339 342 345 346 347 348 348 348 348 350 350 344 349 334 325 327 2 22 3 346 273 185 358 276 295 139 220 281 18 81 245 99 81 357 308 171 112 117 162 281 49 174 213 296 31 42 343 344 334 342 45 1 42 38 342 206 253 280 314 274 120 114 36 100 302 18 298 356 25 17 14 19 14 2 10 358 351 337 339 352 7 6 5 1 355 355 328
337 341 342 343 343 345 347 348 347 348 350 346 334 315 318 313 32 41 27 344 351 16 18 356 338 350 346 42 20 314 30 38 50 18 347 44 130 174 217 15 334 307 33 359 305 182 301 268 4 328 103 215 66 287 269 347 1 355 324 299 360 50 52 324 42 30 16 27 356 30 25 324 336 344 340 337 336 3 12 12 10 0 349 336 330 315 303
336 338 338 339 339 341 345 345 344 343 345 340 323 304 305 328 51 39 7 9 41 114 289 287 320 320 331 301 311 249 128 88 140 192 58 331 332 144 149 226 228 175 224 87 352 354 320 328 282 212 111 338 39 329 346 298 323 319 41 338 320 97 186 76 79 125 278 350 12 21 338 261 265 312 335 345 13 30 15 355 334 324 318 313 316 315 321
332 333 333 335 335 337 340 343 341 340 339 335 309 298 276 306 40 50 20 346 351 304 268 262 270 270 206 296 335 346 328 187 170 122 110 233 294 334 272 257 253 218 140 109 187 231 237 248 188 132 145 200 117 278 14 327 342 43 214 203 43 63 61 72 83 82 76 46 332 322 325 314 313 340 357 339 354 14 350 329 324 322 334 356 355 337 334
325 326 327 331 332 334 335 338 339 337 336 312 305 292 216 352 331 23 16 345 338 340 339 7 342 273 227 229 345 320 305 30 39 62 47 342 1 261 273 253 129 115 125 191 151 293 269 319 305 76 198 106 112 185 60 272 340 144 294 30 57 45 46 52 65 81 280 277 279 331 359 331 316 324 323 330 352 352 334 323 345 1 11 358 340 329 325
321 321 324 326 328 329 330 334 341 343 342 323 279 284 26 35 276 30 3 328 334 30 316 216 241 287 318 212 201 237 322 351 26 8 83 268 272 277 283 42 349 119 11 345 37 256 341 316 343 159 120 3 102 128 214 10 312 89 26 43 63 59 53 26 25 329 323 32 35 19 353 326 340 356 346 353 339 334 346 16 9 19 5 0 348 344 353
322 322 323 325 324 324 324 326 335 343 330 349 32 52 239 239 269 317 313 295 308 299 259 310 300 209 204 227 247 144 276 31 278 214 260 164 286 332 341 112 262 337 151 154 190 64 255 219 18 289 114 214 106 215 76 271 261 242 149 77 79 67 34 12 3 359 44 47 32 18 358 321 1 351 302 308 323 7 31 12 12 25 12 359 351 356 355
325 324 325 325 322 320 318 318 323 325 282 283 272 272 263 273 301 298 295 317 327 223 215 256 237 254 276 257 138 41 345 332 294 136 277 187 216 187 293 223 222 258 26 70 60 200 211 205 176 292 229 125 110 181 179 204 226 181 71 63 53 43 14 13 30 36 28 13 44 17 294 301 305 311 316 350 16 44 26 20 17 15 4 3 358 356 350
320 321 322 321 317 315 313 313 312 301 270 201 316 201 202 216 283 292 325 278 248 260 221 224 293 339 273 23 56 282 302 333 278 30 13 253 246 150 260 340 351 186 322 130 224 358 301 171 224 201 102 267 196 113 227 242 150 68 53 55 59 35 18 31 41 28 7 344 340 315 296 309 334 20 7 4 37 38 31 31 18 4 6 3 1 0 1
315 316 316 314 311 307 305 302 320 313 286 258 192 152 145 188 226 264 292 321 12 330 350 283 243 270 329 319 104 272 269 295 324 220 258 258 161 163 69 41 297 98 281 60 346 191 239 224 160 17 265 216 116 203 201 134 71 74 56 41 43 36 30 32 357 14 337 330 337 326 328 21 33 9 358 22 43 46 31 12 12 1 6 7 2 6 4
313 312 311 310 303 297 296 273 194 266 247 277 285 173 179 243 246 233 206 244 189 283 286 267 323 319 322 316 10 277 6 308 285 316 237 235 316 12 117 147 326 276 164 133 221 258 215 152 74 274 250 230 252 165 146 96 90 67 78 58 69 72 81 38 325 346 339 329 336 356 23 39 34 16 10 34 56 50 23 6 14 20 19 10 5 2 9
309 308 306 303 286 169 235 230 191 155 236 232 273 318 288 264 216 204 205 240 219 187 219 302 337 289 9 304 248 275 38 359 318 302 351 26 284 256 325 32 218 209 20 281 239 237 240 190 114 265 297 234 216 173 101 86 96 75 79 55 59 55 42 25 12 25 356 352 343 18 21 15 31 25 350 32 65 60 33 27 29 18 14 11 5 7 11
307 305 305 267 212 242 235 357 199 249 265 288 297 308 80 83 335 248 156 227 196 154 242 205 243 261 299 304 306 237 91 279 6 329 327 48 334 291 194 167 229 77 275 283 265 287 97 155 193 190 258 134 139 131 129 114 116 105 79 72 56 46 29 25 20 58 19 344 346 6 5 25 34 25 343 43 62 54 49 39 24 30 26 20 6 356 5
303 284 258 225 209 347 13 301 243 261 270 251 171 11 270 144 161 245 201 188 81 250 221 176 234 221 199 248 292 181 113 127 334 318 315 228 96 297 44 31 327 77 300 18 303 60 355 290 277 231 324 124 117 136 132 105 100 95 90 80 53 25 60 8 76 87 10 290 174 72 4 39 21 339 6 79 88 84 59 40 14 19 16 5 348 341 340
339 334 333 326 31 339 288 301 241 263 294 325 222 113 267 197 161 263 190 213 202 205 123 222 219 215 176 174 114 301 16 129 252 287 351 308 114 178 301 304 285 82 272 289 241 120 131 285 317 12 30 212 164 162 111 111 87 71 83 60 68 40 38 52 85 127 40 51 101 101 52 48 143 64 67 63 53 54 44 42 14 340 346 336 312 308 301
5 333 329 353 328 320 310 322 313 289 240 264 306 271 42 299 233 229 304 261 249 252 181 178 167 233 65 80 158 242 277 41 240 205 96 269 250 89 35 256 67 336 265 259 275 124 200 262 197 228 222 183 141 116 108 91 95 91 71 39 80 84 56 43 12 63 69 54 67 89 89 92 88 88 94 90 92 108 150 200 276 275 286 295 297 287 274
326 260 268 287 283 277 293 288 196 249 236 224 116 255 214 226 265 287 164 213 240 213 24 41 347 67 140 162 201 88 313 134 155 130 98 300 284 128 240 258 355 151 269 243 318 273 315 260 194 268 201 169 148 127 110 106 103 93 74 69 82 94 82 27 69 78 58 69 96 98 104 103 88 64 75 133 145 167 188 223 254 267 270 270 267 266 275
290 270 235 251 284 267 186 268 220 164 129 300 69 322 240 263 207 213 250 211 152 135 206 179 169 151 89 48 343 141 185 157 133 349 64 261 327 222 249 245 98 248 237 272 222 285 241 253 262 256 181 166 139 105 109 111 107 104 129 124 109 102 76 86 99 111 122 151 163 137 97 80 68 23 332 317 182 189 193 213 221 243 256 259 262 259 256
270 261 265 186 274 271 146 288 289 52 342 184 169 227 232 253 270 240 283 277 81 268 156 164 189 113 244 177 147 345 32 10 36 33 281 243 219 248 222 230 210 241 144 252 223 240 232 226 214 235 152 124 108 111 105 111 129 151 136 158 159 113 99 100 111 116 141 150 118 104 98 96 105 212 289 306 313 294 253 214 224 229 245 267 312 315 280
328 317 222 240 222 272 49 316 295 131 233 214 199 242 236 250 272 213 190 236 135 227 37 76 77 87 327 156 161 227 114 229 44 88 260 57 336 332 304 258 283 4 230 268 280 288 312 280 349 69 105 109 101 124 149 179 177 172 183 179 120 114 107 135 143 151 165 138 125 103 106 171 180 206 244 256 258 261 253 159 337 339 325 352 343 351 346
314 316 312 360 329 296 174 263 258 280 248 213 237 225 242 253 259 314 69 154 45 33 43 26 27 37 348 346 122 206 116 141 138 213 221 164 201 253 223 249 286 285 289 284 260 241 221 249 164 168 153 137 155 180 195 221 202 184 162 134 134 130 150 162 155 167 159 150 147 152 200 211 196 205 238 241 248 268 342 88 67 4 7 37 27 9 344
282 273 262 299 270 246 176 239 247 234 300 295 276 277 265 259 237 200 163 112 72 71 47 60 60 87 57 320 355 327 187 135 212 250 71 321 235 304 64 78 265 217 254 255 241 257 273 263 178 185 165 171 178 190 193 254 238 237 169 141 137 135 145 167 181 170 170 165 165 163 187 212 212 207 220 244 274 242 152 116 74 40 73 67 43 26 349
303 307 303 268 268 259 236 239 254 275 272 271 288 296 307 321 334 341 53 97 116 98 93 64 7 24 315 312 125 233 283 274 255 239 159 245 306 249 294 264 247 228 195 234 246 238 250 213 180 185 188 183 167 189 209 246 234 237 130 134 144 146 157 168 180 184 165 168 165 164 196 229 239 227 199 201 223 133 120 105 92 65 43 79 75 36 10
276 305 283 283 275 292 292 339 338 303 296 290 288 298 313 347 340 333 354 84 88 103 109 105 135 83 252 243 261 265 266 131 223 247 174 193 146 221 176 243 199 257 251 207 245 239 249 209 184 181 169 167 186 191 219 210 182 113 181 142 150 151 164 174 188 186 177 177 182 176 193 223 234 223 213 206 154 152 144 166 147 142 126 93 107 70 42
287 247 218 226 278 272 261 282 272 276 292 318 339 324 346 27 12 0 345 13 55 89 64 66 87 107 258 42 286 280 263 215 239 255 213 224 212 220 222 252 224 219 252 246 252 261 313 153 161 143 172 186 196 207 217 184 161 215 228 158 144 144 151 163 183 181 186 198 199 193 200 209 248 261 189 166 169 168 151 153 171 172 162 112 115 120 78
208 240 252 233 234 264 345 296 297 304 305 302 310 304 314 305 223 256 109 64 356 68 91 171 207 168 171 200 235 246 241 145 248 232 219 234 212 237 228 242 229 215 234 235 246 270 291 255 150 170 191 195 197 203 211 198 195 221 232 157 141 139 146 168 190 186 190 210 214 200 190 203 244 272 281 176 164 171 171 179 243 210 167 153 140 127 129
222 229 239 231 229 246 252 264 273 266 275 280 283 283 336 318 334 18 98 87 78 97 229 175 150 219 216 221 218 243 306 297 242 240 260 243 196 233 237 231 250 246 238 254 269 275 272 267 142 164 183 190 200 210 210 216 189 210 236 177 149 155 157 165 184 200 198 202 206 191 199 223 268 256 274 252 215 203 181 181 224 197 163 152 174 166 144